Warroad, MN

5:39 PM CST on December 04, 2016 (GMT -0600)
Warroad International-Carlson

Weather History for KRRT - August, 2013

Change the Weather History Date:

Friday, August 2, 2013

  Actual Average Record
Temperature  
Mean Temperature 60 °F -  
Max Temperature 71 °F 77 °F 101 °F (1989)
Min Temperature 50 °F 54 °F 41 °F (1971)
Degree Days  
Heating Degree Days 4    
Growing Degree Days 10 (Base 50)    
Moisture  
Dew Point 50 °F    
Average Humidity 68    
Maximum Humidity 88    
Minimum Humidity 43    
Precipitation  
Precipitation 0.00 in - - ()
Sea Level Pressure  
Sea Level Pressure 29.99 in    
Wind  
Wind Speed 6 mph (NW)    
Max Wind Speed 14 mph    
Max Gust Speed 18 mph    
Visibility 10 miles    
Events      
Averages and records for this station are not official NWS values.
T = Trace of Precipitation, MM = Missing Value Source: NWS Daily Summary

Daily Weather History Graph

Daily Weather History Graph

Search for Another Location

Airport or City:

Trip Planner

Search our weather history database for the weather conditions in past years. The results will help you decide how hot, cold, wet, or windy it might be!

Date:

Astronomy

Aug. 02, 2013 Rise Set
Actual Time 5:56 AM CDT 8:58 PM CDT
Civil Twilight 5:18 AM CDT 9:35 PM CDT
Nautical Twilight 4:30 AM CDT 10:23 PM CDT
Astronomical Twilight 3:30 AM CDT 11:22 PM CDT
Moon 2:14 AM CDT (8/2) 6:00 PM CDT (8/2)
Length of Visible Light 16h 16m
Length of Day
15h 01m
Waning Crescent, 15% of the Moon is Illuminated
Aug 2
Waning Crescent
Aug 6
New
Aug 14
First Quarter
Aug 20
Full
Aug 28
Last Quarter

Hourly Weather History & Observations

Time (CDT) Temp. Dew Point Humidity Pressure Visibility Wind Dir Wind Speed Gust Speed Precip Events Conditions
12:14 AM 55.4 °F 51.8 °F 88% 29.90 in 10.0 mi West 3.5 mph - N/A   Mostly Cloudy
12:34 AM 57.2 °F 51.8 °F 82% 29.90 in 10.0 mi West 3.5 mph - N/A   Scattered Clouds
12:54 AM 55.4 °F 51.8 °F 88% 29.90 in 10.0 mi West 5.8 mph - N/A   Clear
1:14 AM 55.4 °F 51.8 °F 88% 29.90 in 10.0 mi West 4.6 mph - N/A   Clear
1:34 AM 53.6 °F 50.0 °F 88% 29.91 in 10.0 mi West 4.6 mph - N/A   Clear
1:54 AM 53.6 °F 50.0 °F 88% 29.91 in 10.0 mi West 5.8 mph - N/A   Clear
2:14 AM 53.6 °F 50.0 °F 88% 29.91 in 10.0 mi West 4.6 mph - N/A   Scattered Clouds
2:34 AM 53.6 °F 48.2 °F 82% 29.91 in 10.0 mi West 3.5 mph - N/A   Scattered Clouds
2:54 AM 53.6 °F 48.2 °F 82% 29.90 in 10.0 mi West 4.6 mph - N/A   Scattered Clouds
3:14 AM 53.6 °F 48.2 °F 82% 29.90 in 10.0 mi West 4.6 mph - N/A   Clear
3:34 AM 51.8 °F 48.2 °F 88% 29.91 in 10.0 mi West 4.6 mph - N/A   Clear
3:54 AM 53.6 °F 48.2 °F 82% 29.91 in 10.0 mi West 6.9 mph - N/A   Clear
4:14 AM 51.8 °F 48.2 °F 88% 29.91 in 10.0 mi WNW 6.9 mph - N/A   Clear
4:33 AM 51.8 °F 48.2 °F 88% 29.92 in 10.0 mi West 6.9 mph - N/A   Clear
4:54 AM 50.0 °F 46.4 °F 87% 29.93 in 10.0 mi WNW 3.5 mph - N/A   Clear
5:14 AM 51.8 °F 46.4 °F 82% 29.93 in 10.0 mi West 6.9 mph - N/A   Clear
5:34 AM 51.8 °F 46.4 °F 82% 29.93 in 10.0 mi WNW 6.9 mph - N/A   Clear
5:54 AM 51.8 °F 46.4 °F 82% 29.94 in 10.0 mi WNW 6.9 mph - N/A   Clear
6:14 AM 51.8 °F 46.4 °F 82% 29.94 in 10.0 mi WNW 6.9 mph - N/A   Clear
6:34 AM 51.8 °F 46.4 °F 82% 29.95 in 10.0 mi WNW 5.8 mph - N/A   Clear
6:54 AM 51.8 °F 48.2 °F 88% 29.95 in 10.0 mi WNW 6.9 mph - N/A   Clear
7:14 AM 53.6 °F 48.2 °F 82% 29.96 in 10.0 mi WNW 5.8 mph - N/A   Clear
7:34 AM 55.4 °F 51.8 °F 88% 29.97 in 10.0 mi WNW 5.8 mph - N/A   Clear
7:54 AM 57.2 °F 53.6 °F 88% 29.97 in 10.0 mi NW 6.9 mph - N/A   Clear
8:14 AM 57.2 °F 53.6 °F 88% 29.98 in 10.0 mi NW 6.9 mph - N/A   Clear
8:34 AM 60.8 °F 53.6 °F 77% 29.98 in 10.0 mi NNW 6.9 mph - N/A   Clear
8:54 AM 60.8 °F 55.4 °F 82% 29.98 in 10.0 mi NW 6.9 mph - N/A   Clear
9:13 AM 62.6 °F 53.6 °F 72% 29.97 in 10.0 mi NW 6.9 mph - N/A   Clear
9:34 AM 62.6 °F 53.6 °F 72% 29.98 in 10.0 mi NW 9.2 mph - N/A   Clear
9:54 AM 64.4 °F 53.6 °F 68% 29.98 in 10.0 mi NNW 8.1 mph - N/A   Clear
10:14 AM 64.4 °F 51.8 °F 64% 29.98 in 10.0 mi NNW 8.1 mph 16.1 mph N/A   Clear
10:34 AM 66.2 °F 51.8 °F 60% 29.98 in 10.0 mi North 11.5 mph - N/A   Clear
10:54 AM 66.2 °F 51.8 °F 60% 29.99 in 10.0 mi NNW 9.2 mph - N/A   Clear
11:14 AM 66.2 °F 51.8 °F 60% 30.00 in 10.0 mi NNW 8.1 mph - N/A   Scattered Clouds
11:34 AM 66.2 °F 51.8 °F 60% 30.00 in 10.0 mi NNW 8.1 mph - N/A   Scattered Clouds
11:54 AM 68.0 °F 51.8 °F 56% 30.00 in 10.0 mi NNW 6.9 mph 16.1 mph N/A   Scattered Clouds
12:14 PM 69.8 °F 53.6 °F 56% 30.00 in 10.0 mi NW 10.4 mph - N/A   Scattered Clouds
12:34 PM 69.8 °F 51.8 °F 53% 29.99 in 10.0 mi NW 9.2 mph - N/A   Clear
12:54 PM 68.0 °F 51.8 °F 56% 30.00 in 10.0 mi NW 10.4 mph 18.4 mph N/A   Scattered Clouds
1:14 PM 69.8 °F 51.8 °F 53% 29.99 in 10.0 mi NW 9.2 mph - N/A   Scattered Clouds
1:33 PM 69.8 °F 50.0 °F 49% 29.99 in 10.0 mi NNW 12.7 mph 16.1 mph N/A   Scattered Clouds
1:54 PM 69.8 °F 51.8 °F 53% 30.00 in 10.0 mi NNW 10.4 mph 18.4 mph N/A   Scattered Clouds
2:14 PM 69.8 °F 50.0 °F 49% 30.00 in 10.0 mi NNW 10.4 mph 18.4 mph N/A   Scattered Clouds
2:34 PM 71.6 °F 51.8 °F 50% 30.00 in 10.0 mi NW 12.7 mph 18.4 mph N/A   Scattered Clouds
2:54 PM 69.8 °F 51.8 °F 53% 30.00 in 10.0 mi NW 10.4 mph - N/A   Scattered Clouds
3:14 PM 69.8 °F 51.8 °F 53% 30.00 in 10.0 mi NW 8.1 mph 16.1 mph N/A   Scattered Clouds
3:34 PM 69.8 °F 51.8 °F 53% 30.01 in 10.0 mi NNW 8.1 mph 17.3 mph N/A   Scattered Clouds
3:54 PM 69.8 °F 50.0 °F 49% 30.01 in 10.0 mi NNW 8.1 mph 17.3 mph N/A   Scattered Clouds
4:13 PM 71.6 °F 51.8 °F 50% 30.01 in 10.0 mi NW 8.1 mph 17.3 mph N/A   Scattered Clouds
4:34 PM 69.8 °F 51.8 °F 53% 30.01 in 10.0 mi NW 11.5 mph - N/A   Scattered Clouds
4:54 PM 69.8 °F 50.0 °F 49% 30.01 in 10.0 mi NW 10.4 mph 16.1 mph N/A   Scattered Clouds
5:14 PM 71.6 °F 51.8 °F 50% 30.01 in 10.0 mi NNW 12.7 mph 16.1 mph N/A   Clear
5:34 PM 71.6 °F 48.2 °F 43% 30.01 in 10.0 mi NNW 8.1 mph - N/A   Clear
5:52 PM 69.8 °F 50.0 °F 49% 30.01 in 10.0 mi North 10.4 mph 16.1 mph N/A   Clear
6:14 PM 71.6 °F 50.0 °F 46% 30.02 in 10.0 mi NNW 13.8 mph 18.4 mph N/A   Scattered Clouds
6:34 PM 69.8 °F 48.2 °F 46% 30.02 in 10.0 mi NNW 12.7 mph - N/A   Scattered Clouds
6:54 PM 69.8 °F 48.2 °F 46% 30.02 in 10.0 mi NNW 10.4 mph 17.3 mph N/A   Clear
7:00 PM 69.8 °F 48.2 °F 46% 30.02 in 10.0 mi NNW 8.1 mph - N/A   Clear
7:34 PM 69.8 °F 48.2 °F 46% 30.03 in 10.0 mi North 8.1 mph - N/A   Clear
7:53 PM 68.0 °F 48.2 °F 49% 30.03 in 10.0 mi NNW 6.9 mph - N/A   Clear
8:14 PM 66.2 °F 50.0 °F 56% 30.03 in 10.0 mi NNW 5.8 mph - N/A   Clear
8:34 PM 62.6 °F 48.2 °F 59% 30.04 in 10.0 mi NW 5.8 mph - N/A   Clear
8:53 PM 62.6 °F 48.2 °F 59% 30.05 in 10.0 mi WNW 5.8 mph - N/A   Clear
9:14 PM 60.8 °F 48.2 °F 63% 30.06 in 10.0 mi WNW 3.5 mph - N/A   Clear
9:34 PM 60.8 °F 48.2 °F 63% 30.06 in 10.0 mi WNW 3.5 mph - N/A   Clear
9:54 PM 59.0 °F 48.2 °F 67% 30.07 in 10.0 mi WNW 4.6 mph - N/A   Clear
10:14 PM 57.2 °F 48.2 °F 72% 30.07 in 10.0 mi WNW 4.6 mph - N/A   Clear
10:33 PM 57.2 °F 48.2 °F 72% 30.08 in 10.0 mi NW 3.5 mph - N/A   Clear
10:54 PM 57.2 °F 50.0 °F 77% 30.09 in 10.0 mi NW 5.8 mph - N/A   Clear
11:14 PM 57.2 °F 50.0 °F 77% 30.09 in 10.0 mi WNW 5.8 mph - N/A   Clear
11:34 PM 55.4 °F 50.0 °F 82% 30.09 in 10.0 mi NW 5.8 mph - N/A   Clear
11:54 PM 55.4 °F 48.2 °F 77% 30.10 in 10.0 mi NW 5.8 mph - N/A   Clear